Regional Weather Roundup
Issued by NWS

Home | Current Version | Previous Version | Text Only | Print | Product List | Glossary Off
Versions: 1 2 3 4 5 6 7 8 9 10 11 12 13 14 15 16 17 18 19 20 21 22 23 24 25 26 27 28 29 30 31 32 33 34 35 36 37 38 39 40 41 42 43 44 45 46 47 48 49 50

000
ASUS43 KTOP 061508
RWRKS

WEATHER ROUNDUP FOR KANSAS
NATIONAL WEATHER SERVICE GOODLAND KS
1000 AM CDT MON JUL 06 2015

NOTE:  "FAIR" INDICATES FEW OR NO CLOUDS BELOW 12,000 FEET WITH NO
SIGNIFICANT WEATHER AND/OR OBSTRUCTIONS TO VISIBILITY.

KSZ001>006-013>018-027>032-041>047-061600-
NORTHWEST KANSAS

CITY           SKY/WX    TMP DP  RH WIND       PRES   REMARKS
GOODLAND       CLOUDY    64  60  87 N28G37    30.09R
HAYS           PTSUNNY   81  64  57 NW6       29.88R
HILL CITY      CLOUDY    72  69  90 N21G28    29.93R
RUSSELL        MOSUNNY   85  67  54 SW12      29.86R
$$

KSZ061>065-074>080-084>089-061600-
SOUTHWEST KANSAS

CITY           SKY/WX    TMP DP  RH WIND       PRES   REMARKS
DODGE CITY     SUNNY     81  66  60 W13       29.91R
ELKHART          N/A     76  58  53 NW17        N/A
GARDEN CITY    PTSUNNY   73  64  73 N25G32    29.95R
GREAT BEND     MOSUNNY   82  66  57 SW14      29.87R
LIBERAL        MOSUNNY   81  64  57 NW18      29.97R
PRATT          SUNNY     82  63  51 SW20      29.90S
$$

KSZ066>073-081>083-090>101-061600-
SOUTHEAST KANSAS

CITY           SKY/WX    TMP DP  RH WIND       PRES   REMARKS
CHANUTE        MOSUNNY   83  73  72 S20       29.95R
COFFEYVILLE    PTSUNNY   83  74  74 S18G25    29.95R
HUTCHINSON     MOSUNNY   86  69  56 S17       29.88S
MEDICINE LODGE   N/A     86  68  54 S12G20    29.87S
NEWTON         PTSUNNY   82  66  57 S21       29.91S
PARSONS        PTSUNNY   82  74  76 S12G22    29.97R
WICHITA INTL   PTSUNNY   86  70  58 S17       29.89S
WICHITA JABRA  PTSUNNY   84  70  62 S12G22    29.90R
WICHITA MCCONL PTSUNNY   84  70  63 S16       29.90S
WINFIELD       MOSUNNY   86  71  60 S16G25    29.92S
$$

KSZ007>012-019>026-033>040-048>060-102>105-061600-
NORTHEAST KANSAS

CITY           SKY/WX    TMP DP  RH WIND       PRES   REMARKS
CONCORDIA      MOSUNNY   82  69  64 S8        29.87R
EMPORIA        MOSUNNY   82  71  69 S16G22    29.91R
LAWRENCE       PTSUNNY   82  72  71 S6        29.91S
MANHATTAN      PTSUNNY   84  72  67 S8        29.86S
MARYSVILLE     CLOUDY    81  72  74 S9        29.88R
OLATHE IND     MOSUNNY   82  72  71 S16       29.94R
OLATHE EXE     MOSUNNY   80  72  76 S12       29.93S
SALINA         MOSUNNY   88  69  53 S13G25    29.86R
TOPEKA BILLARD CLOUDY    83  73  72 S9        29.90S
TOPEKA FORBES  CLOUDY    84  71  65 S15       29.90S
$$



USA.gov is the U.S. government's official web portal to all federal, state and local government web resources and services.